Tracking 27122 objects as of 26-Mar-2023
HD Live streaming from Space Station
objects crossing your sky now

STARLINK-4020

Track STARLINK-4020 now!
10-day predictions
STARLINK-4020 is classified as:


NORAD ID: 52703
Int'l Code: 2022-053AZ
Perigee: 546.1 km
Apogee: 547.9 km
Inclination: 53.2 °
Period: 95.4 minutes
Semi major axis: 6917 km
RCS: Unknown
Launch date: May 18, 2022
Source: United States (US)
Launch site: AIR FORCE EASTERN TEST RANGE (AFETR)
Your satellite tracking list
Your tracking list is empty




NASA's NSSDC Master Catalog

Two Line Element Set (TLE):
1 52703U 22053AZ  23084.89527219 -.00011213  00000-0 -68816-3 0  9991
2 52703  53.2163 301.5130 0001300 113.9959 246.1169 15.08805656 47029
Source of the keplerian elements: AFSPC